Location: Festilli
(46.4000°N, 11.6667°E)
Time: 15:08:40
(UTC+00:00)

Cosmos 2184 Rocket - Pass Details

Date: 03 March 2021
Orbit: 960 x 1001 km, 82.9° (Epoch: 18 April)

Event Time Altitude Azimuth Distance (km) Brightness Sun altitude
Rises 17:53:51 0° 191° (S) 3,629 7.1 -9.7°
Reaches altitude 10° 17:56:20 10° 193° (SSW) 2,688 6.5 -10.1°
Maximum altitude 18:02:29 77° 280° (W) 993 4.2 -11.2°
Drops below altitude 10° 18:08:44 10° 6° (N) 2,724 6.3 -12.2°
Sets 18:11:16 0° 8° (N) 3,681 7.0 -12.7°
